User: anonymous   Login
Location: Ash Swamp
(41.5170°N, 74.6157°W)
Time: 08:54:28
(UTC+00:00)
Language:

Cosmos 2344 - Orbit

View from above orbital plane
View from above orbital plane
View from above satellite
View from above satellite

Ground track
Ground track

The orbit data is extracted from the following two-line orbital elements,

1 24827U 97028A   20265.92327681 -.00000210 +00000-0 -20099-2 0  9999
2 24827 063.3133 114.7548 1028229 043.1628 041.4785 11.07917812942519
Epoch (UTC): 21 September 2020 22:09:31
Eccentricity: 0.1028229
inclination: 63.3133°
perigee height: 1247 km
apogee height: 2995 km
right ascension of ascending node: 114.7548°
argument of perigee: 43.1628°
revolutions per day: 11.07917812
mean anomaly at epoch: 41.4785°
orbit number at epoch: 94251

The dashed part of the orbit path shows where the satellite is in the earth's shadow,  

DLR